GFSGL_sfc_30mbdewp_057.txt.gz
Dewpoint
66 66 67 65 65 66 65 65 64 64 63 64 64 64 63 63 62 61 62 62 62 63 63 64 64 65 65 65 64 64 63 61 58 58 59 59 59 59 56 56 56 56 57
66 67 67 65 66 64 64 64 64 63 64 64 63 64 64 62 61 61 61 61 61 61 61 62 63 64 63 64 63 62 61 60 59 57 57 57 57 57 56 55 54 54 55
66 66 66 65 65 63 63 63 63 63 63 63 63 64 62 61 61 60 59 59 59 59 60 61 62 62 61 61 60 60 60 60 59 57 55 56 56 57 56 55 54 54 54
66 66 66 64 65 63 63 63 63 63 62 62 62 62 62 62 61 57 57 58 58 58 59 61 61 60 60 59 59 59 59 58 58 57 56 55 56 56 56 55 54 53 53
65 65 65 64 65 64 63 63 63 62 62 61 61 60 61 62 59 56 56 56 56 57 58 59 62 61 60 59 58 58 58 57 57 56 55 55 55 55 54 54 53 52 52
65 64 66 65 64 64 63 63 63 63 62 61 60 57 58 60 60 57 56 55 55 55 55 56 58 60 60 59 58 57 57 57 56 56 55 55 55 55 54 53 51 51 51
63 64 64 65 65 65 65 65 64 64 63 61 58 56 56 58 60 59 58 57 56 56 54 53 54 55 58 58 58 58 57 57 56 56 55 54 54 54 54 53 53 53 53
63 62 64 65 65 65 66 65 65 65 64 62 58 55 55 56 58 59 59 58 57 57 54 50 52 53 54 55 55 55 55 55 57 56 55 55 56 56 55 55 54 54 54
62 62 64 66 65 64 64 63 64 64 64 63 60 56 54 55 56 57 56 55 56 56 52 48 48 48 46 46 49 46 41 43 46 49 47 46 47 51 54 51 54 54 53
64 64 64 64 64 64 62 61 62 63 62 64 62 60 55 54 54 57 57 55 53 53 52 51 47 45 41 34 32 31 29 34 38 41 44 45 45 46 47 44 45 46 49
64 64 63 63 63 63 63 62 61 61 63 62 62 62 59 55 54 57 57 56 54 52 51 49 47 46 44 37 38 43 41 41 43 42 43 45 46 46 44 43 44 49 47
62 62 61 61 61 63 64 63 62 61 60 62 61 61 61 59 53 52 56 57 56 54 52 49 46 44 45 48 44 44 45 45 47 46 46 45 44 44 46 45 44 42 41
62 62 63 63 62 62 62 63 62 61 61 62 62 62 62 61 57 52 51 53 56 55 54 52 45 41 39 41 41 48 47 46 47 47 48 49 50 48 47 46 45 46 47
63 62 62 61 61 60 59 59 59 62 62 62 62 62 62 61 59 55 52 53 56 56 55 52 43 37 36 37 40 40 40 42 43 41 43 45 45 46 46 42 36 39 38
61 61 61 61 60 59 57 57 57 57 57 58 61 62 62 61 60 59 55 54 53 55 52 46 40 35 34 37 42 37 41 40 41 42 42 41 41 41 40 39 38 39 34
58 59 59 59 59 58 57 56 53 54 53 51 51 52 59 61 60 58 54 54 51 49 47 45 42 36 34 35 40 41 41 43 40 39 39 39 39 39 38 37 39 35 34
57 57 57 58 59 58 56 56 54 54 53 52 51 52 54 57 56 56 55 51 48 45 48 44 43 39 37 36 39 43 41 42 42 39 37 38 38 36 34 34 37 36 35
56 56 55 55 56 57 57 56 55 54 53 54 52 51 50 51 51 53 51 49 49 44 47 46 44 42 40 38 39 43 44 42 42 40 39 37 38 37 35 36 38 37 36
57 57 56 56 55 56 56 56 56 55 55 55 54 51 47 46 46 48 48 54 54 51 49 48 46 45 43 40 39 41 43 44 41 40 40 39 37 38 36 36 36 37 37
58 57 57 57 56 56 55 55 56 56 55 55 55 54 50 47 50 50 48 51 52 53 54 53 50 47 46 45 44 43 42 45 44 43 40 40 39 39 36 36 37 36 36
59 59 59 58 58 57 56 55 55 55 55 55 55 55 53 52 52 52 51 49 50 50 49 48 49 50 48 46 46 46 45 45 44 42 40 40 40 39 39 38 37 38 36
54 56 58 58 57 56 56 55 55 55 55 55 56 56 53 50 52 52 51 50 49 49 49 49 49 49 49 47 47 47 46 44 43 42 40 40 40 40 40 40 39 38 37
51 52 53 55 57 57 56 55 54 53 49 47 49 53 51 51 51 51 49 48 48 47 47 47 47 47 48 48 48 48 46 45 43 42 41 41 41 41 41 40 40 38 37
50 50 52 54 55 55 55 55 53 48 46 47 46 51 54 52 51 51 50 50 49 49 50 49 49 49 49 49 49 48 47 45 44 44 42 42 42 42 42 41 40 38 37
50 52 54 55 54 55 54 53 51 49 47 48 49 48 49 51 50 50 50 49 47 46 46 48 48 47 47 46 46 47 45 43 44 44 44 44 43 42 41 38 36 34 32
54 53 53 54 54 54 53 52 49 49 49 49 50 51 50 50 50 49 49 49 49 50 51 50 41 37 35 35 35 34 35 37 38 39 40 39 38 36 34 33 32 31 29

GFSGL_sfc_30mbdewp_060.txt.gz
Dewpoint
67 66 66 66 65 65 64 65 64 64 64 64 64 65 63 63 62 62 62 63 62 63 63 64 65 66 66 66 65 64 63 61 58 58 59 60 59 57 57 57 58 58 58
66 66 66 65 65 65 64 64 63 63 63 64 64 64 63 62 61 61 61 61 61 61 62 63 64 64 64 65 65 64 62 61 59 57 57 57 57 57 55 55 55 55 55
66 66 66 64 65 64 63 64 64 63 63 64 63 64 62 61 61 60 60 60 60 60 61 62 62 62 62 62 62 62 61 61 60 58 56 57 56 56 55 54 54 55 54
66 66 66 65 65 64 63 63 63 63 63 62 62 63 62 61 60 57 58 59 59 59 61 61 61 61 61 60 61 61 60 59 59 57 56 56 56 56 56 54 53 53 52
65 65 65 64 65 64 63 63 63 63 62 62 61 62 62 62 57 56 58 58 58 59 59 62 62 61 59 59 60 59 59 58 57 57 56 55 55 54 54 55 53 53 53
65 65 65 65 64 64 64 63 63 63 62 62 61 60 61 62 59 55 56 56 56 57 58 58 59 60 59 59 58 59 59 58 57 57 56 55 55 55 55 54 52 52 50
64 65 65 66 64 64 65 64 64 64 63 62 61 58 58 59 60 56 56 55 55 54 55 57 57 58 59 59 58 58 58 57 58 58 57 56 55 56 55 53 53 54 54
63 63 64 64 65 65 65 64 64 64 64 63 62 58 56 57 59 58 58 57 57 57 54 53 56 57 57 57 57 57 56 57 57 56 57 56 57 57 56 56 55 56 56
63 63 63 64 64 65 65 65 65 65 64 63 62 61 57 55 56 58 59 58 57 57 54 50 53 54 52 54 55 53 52 51 52 55 55 55 55 56 56 56 55 56 55
63 63 64 65 65 64 63 63 63 63 63 63 61 61 59 56 55 56 57 55 55 55 53 50 48 50 46 47 51 48 50 47 44 46 47 47 49 50 53 53 55 54 53
64 64 64 64 63 63 62 62 61 62 62 63 62 61 60 59 55 55 55 55 54 53 53 51 49 46 42 36 39 37 37 41 42 45 45 46 47 46 45 45 48 50 49
63 62 61 61 61 62 62 63 62 61 62 62 62 61 61 61 58 54 55 55 55 53 52 51 50 47 45 38 39 44 41 43 45 45 45 45 45 45 46 45 46 46 46
60 61 62 62 62 62 62 62 61 61 60 61 61 60 61 61 60 58 54 54 55 55 55 53 49 46 44 47 44 45 44 47 46 46 46 46 47 48 48 48 47 48 48
62 61 62 62 61 60 60 59 60 60 61 61 61 61 61 62 61 59 55 54 52 55 56 54 51 45 43 42 41 43 50 48 47 48 48 49 49 50 48 47 43 44 45
62 62 61 61 60 59 58 57 57 57 58 58 59 60 61 62 61 60 59 56 55 56 56 51 47 42 40 39 40 40 42 44 44 44 44 44 45 46 48 43 40 40 38
59 59 59 59 59 58 57 56 55 55 54 54 53 52 56 58 58 59 57 56 56 55 54 52 50 45 40 38 38 40 40 43 42 42 44 44 44 44 43 41 40 39 39
57 58 58 58 58 58 57 56 55 55 52 51 50 50 49 51 52 54 55 56 54 52 54 52 52 48 45 39 38 41 40 41 44 41 41 41 41 42 40 39 40 39 37
57 56 56 56 56 56 56 56 56 55 55 55 53 51 50 49 50 51 50 49 49 48 51 51 50 49 45 42 39 39 43 43 43 42 41 40 40 39 39 38 38 39 38
57 57 56 56 56 55 56 56 56 56 56 56 56 53 49 47 47 47 47 53 52 51 51 50 51 48 46 43 43 42 42 44 43 43 43 41 40 40 39 38 38 38 39
59 58 57 57 57 57 56 56 56 55 55 55 55 55 54 49 51 52 49 51 54 55 54 53 53 51 51 49 46 45 43 44 45 44 43 43 42 40 39 39 38 38 39
55 56 58 58 58 58 57 57 56 56 55 55 55 56 55 54 54 53 52 51 52 54 54 55 55 54 53 52 51 49 46 45 43 44 44 44 43 41 41 39 39 39 38
51 51 53 55 56 57 57 57 56 56 56 56 56 56 54 53 53 53 53 53 53 52 52 51 51 51 52 52 52 52 51 48 46 45 46 45 44 43 41 40 39 39 39
50 50 50 51 53 55 56 57 56 56 55 54 50 48 49 51 52 52 53 53 52 51 51 50 50 50 50 50 51 50 50 49 49 48 45 44 43 42 42 41 40 40 39
52 50 50 52 54 54 55 55 55 54 51 48 48 49 50 52 53 53 53 52 51 51 51 50 49 48 49 49 49 50 50 51 52 49 48 45 43 42 41 41 41 40 40
52 53 52 52 52 54 54 53 51 50 49 49 50 50 50 49 49 49 49 50 49 49 50 47 43 47 49 50 50 50 49 45 47 47 47 47 47 47 46 45 44 42 40
52 52 52 51 51 51 51 50 50 50 50 51 51 51 51 51 52 52 52 52 52 52 52 53 52 50 40 37 37 37 38 40 43 44 46 46 45 44 43 43 41 40 38

GFSGL_sfc_30mbdewp_063.txt.gz
Dewpoint
70 69 69 68 67 67 66 67 67 66 66 66 66 66 65 65 64 65 65 65 64 65 66 66 66 67 68 69 67 66 64 62 59 58 59 60 59 60 59 59 60 59 58
70 69 68 67 67 66 66 66 66 65 66 66 66 66 65 64 64 63 63 63 63 63 64 65 65 66 66 68 67 66 64 62 60 57 58 57 57 59 57 56 56 56 55
69 68 67 66 66 66 66 65 65 65 65 65 66 65 65 63 63 62 62 62 63 63 64 64 64 65 65 65 66 65 63 62 61 58 56 57 56 57 56 55 55 56 54
68 67 67 66 66 66 66 65 65 65 64 65 65 65 64 63 62 60 60 62 62 63 64 63 63 64 65 64 65 64 63 61 60 58 56 56 56 56 56 54 53 53 51
67 67 66 66 66 66 65 65 65 65 65 65 64 65 64 63 60 58 60 61 62 62 64 63 63 62 61 63 63 63 62 60 59 57 56 56 55 54 55 55 53 52 53
67 66 67 67 66 66 66 65 65 65 64 64 63 63 63 62 58 55 59 60 60 61 62 61 61 61 60 59 60 61 62 61 59 58 57 56 56 56 56 55 53 52 51
66 66 67 67 66 66 66 66 65 65 65 63 63 61 61 63 59 55 56 57 57 58 61 61 58 59 60 60 59 59 59 59 60 61 59 58 58 58 57 55 54 54 54
66 66 66 66 67 67 67 66 66 66 66 65 63 61 59 60 59 56 56 58 59 58 57 58 60 60 60 60 60 60 60 60 60 59 61 60 59 59 58 57 56 56 57
66 65 66 66 66 67 67 66 66 66 66 65 64 61 59 58 56 58 58 60 58 59 58 55 58 60 57 57 59 59 58 57 55 56 57 58 57 58 59 57 56 55 55
66 66 66 66 66 66 66 65 65 65 65 64 63 64 61 60 57 55 58 60 59 58 59 56 49 57 53 55 58 58 57 57 55 56 54 54 57 57 56 58 55 53 53
66 66 66 67 67 66 66 65 65 64 64 64 63 63 60 60 59 56 56 59 57 57 56 55 52 48 47 48 53 55 55 55 51 53 50 49 50 55 56 56 55 54 50
66 66 65 65 65 65 64 65 64 64 63 63 62 62 62 62 60 57 55 57 57 56 55 55 54 48 45 39 38 43 39 46 44 41 40 40 40 41 42 45 49 50 50
64 63 63 63 63 63 63 63 63 63 62 61 61 61 61 63 62 58 55 56 57 56 57 56 54 49 45 43 37 43 42 40 41 42 42 42 43 43 46 48 49 51 50
63 63 63 63 63 63 62 62 62 62 62 62 61 61 62 62 62 62 58 56 54 56 57 57 55 51 48 48 50 45 46 47 45 43 43 44 46 49 47 44 43 44 42
63 63 63 63 62 61 61 60 59 60 60 60 60 61 60 61 62 61 61 60 58 57 57 58 55 53 51 48 48 48 50 52 50 50 49 48 49 49 50 50 44 42 39
63 62 60 59 59 59 59 58 56 56 55 54 54 54 58 57 56 54 54 56 57 56 56 56 55 54 52 50 47 47 45 44 46 48 49 49 47 46 47 49 47 42 38
60 59 59 59 58 57 57 56 54 56 53 52 51 51 50 52 51 51 51 51 51 52 55 56 55 56 56 53 50 45 44 42 44 43 44 44 46 46 46 45 44 41 39
59 57 57 56 56 56 56 56 56 55 54 55 52 52 51 50 49 49 49 49 52 49 54 55 55 56 56 54 53 49 44 43 44 44 41 42 43 44 43 41 40 39 38
59 57 57 57 57 56 57 56 55 55 55 55 55 53 51 48 47 47 47 56 55 54 52 53 54 55 55 55 53 50 46 45 46 47 45 43 41 41 40 39 38 38 38
60 59 58 59 58 58 58 57 56 56 55 54 54 53 55 53 53 53 53 53 55 56 56 55 54 54 53 52 50 50 50 50 50 49 47 44 43 40 39 38 38 37 38
54 55 55 58 58 58 58 58 57 57 56 55 54 55 55 51 49 48 50 51 53 54 56 57 57 56 56 54 53 51 51 50 49 49 50 48 45 43 42 39 38 38 37
51 51 53 52 53 55 56 56 57 57 57 56 56 56 49 48 49 50 51 53 54 55 55 55 54 54 53 53 54 54 54 53 53 51 48 48 48 48 45 43 40 40 38
50 51 50 51 52 53 53 56 56 56 56 55 52 49 48 48 50 51 51 52 53 53 54 53 51 49 49 49 50 51 51 51 52 53 51 50 50 48 46 45 46 45 41
52 51 51 53 54 53 53 55 54 51 50 49 49 49 48 48 48 49 49 50 50 51 51 49 47 47 47 48 49 50 50 50 50 52 53 52 50 48 48 48 49 47 42
53 53 53 53 53 54 53 52 51 50 50 50 50 51 51 51 51 51 51 51 51 51 52 52 51 50 49 46 43 41 39 39 41 45 51 52 51 51 50 48 47 46 46
52 52 52 52 52 52 51 51 51 50 50 50 50 50 51 51 51 52 52 51 51 51 51 52 52 51 50 47 42 41 42 41 42 42 44 49 49 49 48 48 48 48 48

GFSGL_sfc_30mbdewp_069.txt.gz
Dewpoint
68 68 68 67 67 66 66 65 65 65 65 64 64 66 65 65 65 64 64 64 63 65 65 64 65 67 67 69 70 68 67 66 61 60 62 63 63 62 63 63 62 60 60
68 68 68 68 67 66 66 64 65 65 65 64 63 62 65 63 62 63 62 60 61 62 63 64 64 65 66 68 69 68 67 66 62 59 59 59 60 62 62 62 61 59 59
69 68 65 67 67 66 65 64 64 64 64 63 63 63 63 63 61 62 62 61 61 62 62 64 64 64 65 66 68 68 67 66 63 60 58 59 58 61 61 61 60 60 58
69 68 64 65 66 65 64 64 64 64 64 63 63 63 62 62 61 61 59 59 61 61 62 63 62 63 65 66 67 67 67 64 63 60 58 57 57 59 59 58 58 57 55
66 66 64 65 65 65 64 64 63 63 63 63 64 63 63 62 60 61 60 59 61 61 61 62 64 62 63 64 66 67 65 63 61 60 58 57 56 56 57 58 57 55 55
65 65 64 65 66 65 65 64 63 65 64 65 63 64 63 63 58 57 59 59 60 60 60 60 62 61 61 61 62 63 66 64 61 60 59 57 57 57 58 57 56 55 53
67 65 65 65 65 66 66 64 65 65 66 66 66 65 64 64 59 56 54 58 59 58 59 60 59 58 61 62 60 61 62 62 64 62 60 59 58 58 58 56 56 56 55
68 66 65 65 65 65 65 65 66 67 67 67 67 66 66 65 62 59 55 55 61 58 57 58 59 60 61 61 61 61 61 62 63 62 62 61 61 60 60 59 58 58 57
68 66 65 65 65 66 66 66 67 67 67 66 66 66 66 65 61 60 57 57 60 60 59 58 58 59 58 59 60 59 60 61 60 59 60 62 62 61 61 58 58 57 56
68 65 65 65 65 65 66 67 68 68 66 64 64 65 65 64 60 59 59 58 60 60 60 61 56 56 58 56 61 58 58 59 57 59 60 60 60 61 60 61 59 57 56
66 66 66 66 66 65 67 69 68 65 63 64 64 64 64 65 63 58 56 59 61 60 59 60 60 52 57 56 56 61 58 59 58 58 58 59 60 61 61 61 62 61 58
66 66 66 67 66 67 68 68 65 64 64 64 63 63 62 64 63 59 58 57 60 61 61 59 58 51 52 54 55 52 51 53 55 54 55 55 57 57 57 58 60 60 59
68 68 68 68 67 67 67 66 64 64 62 61 61 60 60 63 63 60 58 57 57 57 60 58 55 52 50 48 50 44 43 46 46 49 49 47 45 46 50 54 57 56 56
67 67 67 66 66 66 65 64 62 60 60 61 60 61 62 63 62 63 61 60 58 58 58 59 59 56 54 54 50 45 42 43 45 47 47 46 47 46 45 46 46 47 47
65 65 64 64 64 64 63 62 61 61 60 59 58 58 56 57 60 59 59 61 60 59 60 60 59 59 58 57 55 52 47 46 47 50 49 49 48 49 47 48 48 46 45
62 61 60 60 62 62 62 60 55 56 55 54 52 53 54 54 54 54 53 53 53 54 58 59 59 60 60 59 58 56 55 54 52 50 51 54 55 55 54 52 50 47 46
61 60 61 62 60 58 55 53 55 54 54 53 53 52 52 52 51 52 51 51 52 53 57 58 58 59 59 59 59 59 58 59 57 56 56 57 57 57 56 54 53 51 49
63 60 60 56 53 52 51 50 48 51 53 54 52 52 50 51 52 52 50 51 54 53 57 58 59 59 59 59 59 59 59 58 55 54 55 55 55 54 52 51 51 51 51
59 59 58 57 56 55 55 51 49 47 47 47 53 52 51 51 50 48 48 54 50 50 53 55 57 58 58 59 58 58 58 56 55 54 53 53 52 52 51 51 51 51 52
57 57 55 55 57 59 54 51 50 50 49 53 55 55 56 55 53 53 53 54 53 51 50 55 56 57 57 57 56 56 56 55 55 54 53 52 52 51 50 49 50 50 51
56 58 56 55 52 58 59 54 50 47 48 53 56 56 52 51 49 50 50 50 51 52 54 55 53 57 57 57 56 55 53 53 54 54 54 53 52 51 51 51 51 51 51
52 52 54 55 49 47 48 47 46 46 49 54 56 55 49 49 50 50 51 51 52 52 50 51 50 49 49 50 50 49 50 51 53 54 55 54 54 53 53 52 52 51 51
49 48 46 45 46 47 47 45 47 51 51 51 52 52 51 51 51 50 50 50 51 50 50 50 50 49 50 50 49 49 48 48 49 50 50 51 52 54 54 54 53 52 51
51 51 51 51 50 50 52 53 51 51 51 51 51 50 50 50 49 49 49 50 50 50 50 50 48 47 46 46 47 47 46 44 46 45 49 49 50 51 52 52 52 52 51
53 53 53 53 51 52 51 51 50 50 49 49 48 48 48 48 48 48 50 48 47 46 45 45 45 47 47 46 46 47 46 42 45 44 46 47 45 45 45 46 46 46 47
51 52 51 51 50 50 49 48 48 47 47 46 46 46 45 43 46 46 46 45 47 48 48 44 42 45 40 41 46 43 42 41 43 42 45 46 44 43 42 42 43 43 43

GFSGL_sfc_30mbdewp_072.txt.gz
Dewpoint
69 69 70 69 69 69 69 67 66 66 66 65 63 66 66 66 67 67 66 66 66 66 66 65 65 66 67 68 68 68 67 66 62 61 62 64 63 63 64 63 62 61 61
69 69 69 68 68 68 67 67 67 66 66 66 65 64 65 66 65 63 62 63 63 63 63 64 64 65 66 67 67 67 67 67 62 59 60 60 62 63 63 62 63 60 59
69 68 69 68 68 68 67 67 67 66 66 65 65 64 65 64 63 63 62 62 62 63 62 63 65 65 65 66 67 68 66 66 63 60 58 59 60 62 61 62 61 60 59
68 69 69 68 69 68 68 67 66 66 66 64 64 64 64 64 63 62 61 60 61 62 61 62 63 65 66 67 67 67 66 65 63 60 59 58 59 60 61 59 58 59 57
69 69 68 69 69 67 67 66 66 65 64 65 64 64 64 64 61 62 61 60 60 62 62 62 64 63 64 64 66 66 66 63 61 59 58 57 57 58 58 59 58 58 57
69 68 68 68 68 67 66 66 66 65 65 65 65 64 65 65 58 58 58 60 62 61 60 61 62 61 61 63 64 65 66 63 61 60 59 57 57 58 58 58 58 57 54
68 67 68 68 68 67 67 66 65 66 67 67 66 66 65 65 60 57 55 57 58 61 60 60 59 62 63 62 61 63 63 64 64 62 60 59 58 58 58 59 57 56 56
69 68 68 69 68 67 67 67 66 67 68 68 67 67 66 64 61 60 58 57 57 61 60 60 60 61 61 63 63 63 63 63 63 63 63 62 60 60 59 59 58 58 59
69 68 68 68 67 67 68 67 67 68 68 66 67 67 67 65 62 61 60 58 57 60 61 60 60 62 58 58 61 62 61 61 61 61 62 63 61 61 61 60 58 57 56
68 68 68 69 68 68 68 68 69 68 67 66 66 65 66 66 62 60 60 60 58 60 62 61 59 57 58 55 58 62 61 62 60 59 60 61 62 61 60 60 59 57 57
69 68 67 68 68 68 68 68 69 68 67 67 65 65 66 66 62 59 59 61 60 61 61 60 61 57 57 57 55 59 56 56 60 61 61 62 62 63 61 61 61 60 58
68 68 67 68 67 67 67 68 69 67 66 66 65 64 64 66 63 59 57 58 60 61 63 60 57 55 53 55 56 56 52 51 58 59 58 60 60 61 61 61 62 63 63
62 59 67 68 67 68 68 67 67 66 64 65 64 61 62 65 63 59 58 58 58 59 60 60 57 52 51 50 51 53 48 50 51 51 54 56 58 59 61 61 62 62 62
57 57 66 66 68 68 67 67 65 64 64 61 62 61 63 64 65 62 60 59 58 58 60 59 58 55 54 54 54 50 50 48 47 48 49 52 53 53 54 56 55 54 53
63 64 65 66 66 66 66 64 64 60 61 62 61 59 59 60 60 60 62 61 60 58 60 62 61 59 59 58 57 56 50 49 46 46 47 51 54 55 51 51 49 49 48
65 64 65 64 64 64 64 62 58 59 55 53 52 56 54 55 54 53 54 54 54 55 60 60 60 60 60 60 60 60 59 54 52 52 52 52 55 55 55 56 56 52 49
62 62 62 62 61 62 63 61 56 56 52 51 51 50 53 53 51 52 52 52 51 54 58 58 58 59 59 60 60 60 59 60 60 59 58 57 56 56 56 56 56 56 54
57 58 61 60 60 60 58 58 55 53 53 53 52 52 50 49 51 51 50 51 53 53 57 57 57 59 60 59 60 59 59 59 58 56 56 56 57 56 56 55 54 53 53
56 55 56 55 55 57 58 54 52 53 55 56 54 52 51 48 49 49 48 54 55 55 56 56 58 58 57 58 58 57 57 57 57 56 55 55 54 53 53 53 52 52 52
57 55 55 55 55 54 54 56 58 57 56 57 56 54 54 53 54 54 53 56 55 55 55 56 57 57 57 57 56 56 55 55 54 54 54 54 53 52 52 51 51 50 50
56 54 52 52 53 56 57 58 57 57 57 58 58 58 54 55 52 53 53 53 52 53 53 52 52 52 52 54 54 56 54 54 53 54 55 54 53 53 52 53 52 52 51
53 57 57 55 55 56 56 57 57 57 56 56 54 51 50 51 51 51 51 51 51 52 52 51 50 50 51 51 50 49 48 48 49 50 51 51 52 54 54 54 53 52 52
50 49 49 50 53 53 53 52 53 53 54 53 51 51 51 51 51 51 51 51 51 51 51 49 48 47 47 48 48 47 45 45 46 46 48 50 50 51 51 51 51 51 51
53 52 52 52 52 52 53 52 52 51 52 51 51 50 49 49 49 50 49 49 49 48 47 47 47 47 47 46 47 46 45 43 46 45 47 48 46 45 46 46 47 46 46
53 53 52 51 52 52 51 50 50 49 49 49 49 49 48 48 49 49 48 48 48 47 47 49 49 46 45 45 44 40 38 40 42 41 45 47 46 43 42 41 41 41 42
51 51 51 50 49 49 49 48 48 47 47 46 46 45 46 45 47 47 47 48 47 48 45 42 39 36 35 34 35 31 29 29 30 30 33 43 45 43 45 44 41 40 42

GFSGL_sfc_30mbdewp_075.txt.gz
Dewpoint
69 71 71 70 70 68 69 68 67 66 65 64 64 66 66 66 67 66 66 66 66 65 67 66 66 67 66 66 67 67 67 65 61 61 62 64 63 64 63 62 61 61 62
70 70 70 70 69 69 68 68 66 67 66 65 64 65 66 66 66 65 64 64 64 64 64 64 64 66 65 65 66 66 66 66 62 60 61 61 62 63 62 61 60 60 61
70 70 69 69 68 69 68 68 67 66 65 66 65 64 63 64 63 64 62 61 62 63 63 63 62 64 65 65 66 66 66 65 63 60 59 60 61 63 63 62 61 59 59
69 69 69 68 68 68 68 67 67 66 66 66 65 64 64 63 63 63 62 60 60 61 63 60 64 65 64 66 66 66 64 63 62 61 59 59 60 61 61 59 58 58 58
69 69 68 68 69 68 67 67 66 66 66 66 65 64 63 64 61 62 61 60 60 61 62 64 63 62 63 64 65 66 65 62 61 59 58 58 58 59 60 59 58 57 56
68 68 70 69 69 68 68 67 66 65 65 65 64 64 64 62 59 59 59 60 60 61 61 63 61 61 62 63 65 66 64 62 60 59 58 58 58 59 59 59 58 57 54
68 69 70 69 68 67 67 67 66 64 65 65 65 65 64 63 59 57 56 59 59 61 61 61 61 63 61 62 63 64 64 64 62 60 59 58 58 58 59 58 58 57 55
70 69 69 70 67 67 67 65 65 65 65 66 66 66 65 62 60 58 58 56 59 61 60 61 60 61 63 62 61 62 62 64 64 63 61 60 59 59 59 59 59 58 58
70 68 69 68 68 67 66 65 66 66 67 67 67 67 66 62 61 60 59 57 58 59 61 60 62 60 58 60 62 62 61 61 61 63 63 63 61 60 59 60 58 57 56
69 70 70 69 68 67 66 66 66 67 67 66 66 65 66 64 61 61 61 59 57 60 61 61 58 58 56 55 60 61 60 60 60 60 60 61 61 60 60 60 58 57 56
70 67 62 60 60 66 67 67 67 67 66 66 66 65 65 65 62 60 60 60 59 60 60 59 61 58 57 56 55 59 57 55 60 59 60 60 62 61 60 60 60 58 57
63 59 58 59 61 60 59 64 66 66 65 66 65 64 65 65 63 59 58 60 61 61 60 59 56 57 55 55 55 56 53 52 55 60 61 61 60 61 60 61 61 61 60
59 57 58 58 60 60 57 58 65 65 65 65 63 63 64 64 61 59 58 57 58 60 61 59 54 53 52 52 52 53 51 51 51 51 52 56 61 61 62 61 61 61 62
57 54 57 56 59 58 59 61 65 63 63 63 63 63 64 65 61 58 58 56 57 58 58 58 58 56 54 54 54 51 50 51 49 47 48 50 53 56 60 61 61 61 60
58 54 57 58 61 65 66 65 64 62 63 62 63 62 63 63 61 60 60 59 59 59 60 62 58 57 56 56 56 56 53 51 49 48 46 46 49 54 54 55 54 54 55
63 60 61 59 64 65 61 61 58 59 59 60 59 59 58 60 55 57 57 57 57 57 59 59 59 60 59 60 59 60 60 57 52 51 52 52 54 55 54 54 55 54 53
57 60 62 61 62 63 63 60 58 55 51 50 51 52 53 53 51 51 51 51 51 56 57 57 57 57 58 58 59 59 59 59 60 59 59 58 58 56 55 55 56 55 55
56 56 56 56 58 59 59 61 58 56 51 51 51 51 49 49 49 49 49 51 52 54 57 57 57 58 58 59 59 57 57 57 57 56 56 55 56 56 56 55 55 54 54
56 56 56 56 56 57 56 58 58 57 54 53 52 51 46 47 48 49 49 54 55 54 55 58 58 57 57 56 56 55 55 55 54 54 54 54 54 53 53 53 53 52 52
55 55 56 56 57 57 57 57 57 57 58 58 55 55 53 52 52 52 52 56 55 56 57 56 57 57 56 56 55 55 55 54 54 53 53 53 52 52 51 51 51 50 50
56 57 52 55 56 56 57 56 57 56 57 59 58 57 57 56 57 55 54 53 52 51 51 51 51 51 51 51 51 51 50 50 49 50 50 51 53 54 53 53 52 52 51
53 53 55 55 53 54 55 55 56 57 58 58 58 58 56 52 52 52 52 52 51 51 51 49 49 49 48 47 47 46 46 46 46 47 48 50 51 49 50 50 51 50 50
53 53 53 54 56 55 54 56 57 56 54 53 53 52 52 52 52 51 51 51 50 48 48 48 47 48 48 47 46 45 44 44 45 45 46 48 47 45 46 47 47 45 45
53 53 52 53 53 52 52 52 52 52 51 50 50 50 50 50 49 49 49 49 48 48 49 48 46 45 46 44 42 38 39 40 41 40 44 44 46 44 42 41 40 40 40
52 52 52 53 52 50 49 50 50 50 51 51 50 50 51 50 48 47 48 48 48 49 48 46 43 39 36 32 30 29 29 29 30 30 31 34 41 45 43 44 43 41 40
51 51 50 50 50 49 48 48 48 48 47 47 47 47 48 48 47 47 48 47 48 48 44 40 36 34 33 31 27 26 26 25 26 26 29 33 38 41 41 42 41 39 40